Regional Weather Roundup
Issued by NWS

Home | Current Version | Previous Version | Graphics & Text | Print | Product List | Glossary On
Versions: 1 2 3 4 5 6 7 8 9 10 11 12 13 14 15 16 17 18 19 20 21 22 23 24 25 26 27 28 29 30 31 32 33 34 35 36 37 38 39 40 41 42 43 44 45 46 47 48 49 50
000
ASUS45 KSLC 181510
RWRUT

UTAH REGIONAL WEATHER ROUNDUP
NATIONAL WEATHER SERVICE SALT LAKE CITY UT
900 AM MDT SAT APR 18 2015

UTZ001>011-023>025-181600-

NORTHERN UTAH

CITY           SKY/WX    TMP DP  RH WIND       PRES   REMARKS
BRIGHAM CITY   SUNNY     44  37  76 CALM      30.06R
HILL AFB       SUNNY     47  36  66 E12       30.04F
LOGAN          SUNNY     43  36  76 NW3       30.07S
OGDEN          SUNNY     50  36  58 CALM      30.04S
PROVO AIRPORT  SUNNY     48  36  61 SE6       30.07R
SALT LAKE CITY MOSUNNY   50  36  58 CALM      30.04S
VERNAL         MOSUNNY   44  38  79 CALM      30.02F
WENDOVER       SUNNY     59  23  25 CALM      30.05S
HEBER CITY     SUNNY     37  32  81 CALM      30.08S
WEST JORDAN    SUNNY     50  39  66 CALM      30.06R

$$

UTZ012>022-026-027-181600-

SOUTHERN/CENTRAL UTAH

CITY           SKY/WX    TMP DP  RH WIND       PRES   REMARKS
BLANDING       PTSUNNY   35  35 100 W5        30.12F WCI  31
BRYCE CANYON   SUNNY     42  28  57 E6        30.12R
CEDAR CITY     SUNNY     45  30  55 CALM      30.09R
DELTA          SUNNY     46  30  53 S3        30.08R
HANKSVILLE     SUNNY     45  43  93 CALM      30.07S
MILFORD        SUNNY     41  30  65 S10       30.08R
MOAB/CYNLANDS  CLOUDY    41  39  93 SE7       30.04S
PRICE          MOSUNNY   43  36  76 E3        30.03F
ST GEORGE      SUNNY     52  27  37 NW3       30.06R
KANAB          SUNNY     45  30  57 N3        30.13R

$$

REGIONAL REPORTS     COLORADO/ARIZONA

CITY           SKY/WX    TMP DP  RH WIND       PRES   REMARKS
CRAIG, CO      SNOW      33  31  92 W10       30.00S VSB 1/2 WCI  25
GRAND JUNCTION CLOUDY    36  36 100 E5        30.04S WCI  32
RIFLE          SNOW      33  31  92 E3        30.02S VSB 1/2
MONTROSE       CLOUDY    34  33  96 NW3       30.07S
CORTEZ         PTSUNNY   34  32  92 SW7       30.06R WCI  28
PAGE, AZ       SUNNY     54  36  50 CALM      30.04S
GRAND CANYON   SUNNY     45  28  51 CALM      30.13R
KINGMAN        SUNNY     62  15  16 CALM      30.03R
FLAGSTAFF      SUNNY     46  21  37 W7        30.13R

$$

REGIONAL REPORTS    NEVADA/IDAHO/WYOMING

CITY           SKY/WX    TMP DP  RH WIND       PRES   REMARKS
LAS VEGAS, NV  SUNNY     65  17  15 SW8       29.96R
ELY            SUNNY     40  17  39 S9        30.15R WCI  34
ELKO           SUNNY     43  24  47 CALM      30.15R
POCATELLO, ID  SUNNY     50  30  46 W13       30.10R
BURLEY         SUNNY     51  31  46 W13G20    30.08R
EVANSTON, WY   SUNNY     38  32  79 SW6       30.08S WCI  33
ROCK SPRINGS   MOSUNNY   38  34  85 W6        30.04F WCI  33
KEMMERER       SUNNY     37  34  87 W5        30.07S WCI  34

$$



USA.gov is the U.S. government's official web portal to all federal, state and local government web resources and services.